This is the latest recevied weather packets stored in our database for station/object AA7F. If no packets are shown the sender has not sent any weather packets the latest 10 day(s).
| Time | Temp. | Humidity | Pressure | Rain* | Wind** | Luminosity | Snow |
|---|---|---|---|---|---|---|---|
| 1777726742 | 9.44° C | 76% | 1015.6 hPa | 0 mm | - | 21 W/m² | - |
| 1777726439 | 9.44° C | 73% | 1015.5 hPa | 0 mm | - | 18 W/m² | - |
| 1777726135 | 8.89° C | 76% | 1015.4 hPa | 0 mm | - | 15 W/m² | - |
| 1777725530 | 8.89° C | 76% | 1015.3 hPa | 0 mm | - | 6 W/m² | - |
| 1777725227 | 9.44° C | 76% | 1015.3 hPa | 0 mm | - | 2 W/m² | - |
| 1777724925 | 9.44° C | 75% | 1015.3 hPa | 0 mm | - | 1 W/m² | - |
| 1777724319 | 9.44° C | 75% | 1015.3 hPa | 0 mm | - | 0 W/m² | - |
| 1777723713 | 8.89° C | 76% | 1015.5 hPa | 0 mm | - | 0 W/m² | - |
| 1777723409 | 8.89° C | 76% | 1015.6 hPa | 0 mm | - | 0 W/m² | - |
| 1777723107 | 8.89° C | 77% | 1015.5 hPa | 0 mm | - | 0 W/m² | - |
| 1777722804 | 8.89° C | 78% | 1015.4 hPa | 0 mm | - | 0 W/m² | - |
| 1777722500 | 8.89° C | 77% | 1015.6 hPa | 0 mm | - | 0 W/m² | - |
| 1777722197 | 8.89° C | 76% | 1015.6 hPa | 0 mm | - | 0 W/m² | - |
| 1777721894 | 9.44° C | 76% | 1015.6 hPa | 0 mm | - | 0 W/m² | - |
| 1777721592 | 9.44° C | 75% | 1015.7 hPa | 0 mm | - | 0 W/m² | - |
| 1777721290 | 9.44° C | 75% | 1015.6 hPa | 0 mm | - | 0 W/m² | - |
| 1777720987 | 9.44° C | 74% | 1015.3 hPa | 0 mm | - | 0 W/m² | - |
| 1777720684 | 10° C | 72% | 1015.4 hPa | 0 mm | - | 0 W/m² | - |
| 1777720381 | 10.56° C | 70% | 1015.3 hPa | 0 mm | - | 0 W/m² | - |
| 1777720079 | 10° C | 72% | 1015.6 hPa | 0 mm | - | 0 W/m² | - |
| 1777719777 | 10° C | 73% | 1015.4 hPa | 0 mm | - | 0 W/m² | - |
| 1777719474 | 10° C | 73% | 1015.2 hPa | 0 mm | - | 0 W/m² | - |
| 1777719170 | 10° C | 72% | 1015 hPa | 0 mm | - | 0 W/m² | - |
| 1777718868 | 10° C | 72% | 1015 hPa | 0 mm | - | 0 W/m² | - |
| 1777718566 | 10.56° C | 71% | 1015.1 hPa | 0 mm | - | 0 W/m² | - |
* Rain latest hour (hover to see other rain measurements)
** Current wind speed in m/s (hover to see current wind gust speed)